TimeMDT,TemperatureF,Dew PointF,Humidity,Sea Level PressureIn,VisibilityMPH,Wind Direction,Wind SpeedMPH,Gust SpeedMPH,PrecipitationIn,Events,Conditions,WindDirDegrees,DateUTC
12:48 AM,53.1,32.0,45,30.06,-9999.0,ESE,16.1,-,N/A,,Unknown,110,2013-05-23 06:48:00
1:48 AM,52.0,30.9,45,30.05,-9999.0,ESE,16.1,24.2,N/A,,Unknown,110,2013-05-23 07:48:00
2:48 AM,51.1,32.0,48,30.04,-9999.0,ESE,16.1,-,N/A,,Unknown,120,2013-05-23 08:48:00
3:48 AM,51.1,33.1,50,30.04,-9999.0,East,15.0,-,N/A,,Unknown,100,2013-05-23 09:48:00
4:48 AM,50.0,37.0,61,30.04,-9999.0,East,12.7,-,N/A,,Unknown,100,2013-05-23 10:48:00
5:48 AM,51.1,41.0,68,30.02,-9999.0,East,16.1,23.0,N/A,,Unknown,100,2013-05-23 11:48:00
6:48 AM,52.0,42.1,69,30.02,-9999.0,East,20.7,29.9,N/A,,Unknown,100,2013-05-23 12:48:00
7:48 AM,55.0,43.0,64,30.02,-9999.0,SE,26.5,38.0,N/A,,Unknown,130,2013-05-23 13:48:00
8:48 AM,57.0,42.1,57,29.99,-9999.0,SE,31.1,44.9,N/A,,Unknown,130,2013-05-23 14:48:00
9:48 AM,57.9,41.0,53,29.99,-9999.0,ESE,28.8,38.0,N/A,,Unknown,120,2013-05-23 15:48:00
10:48 AM,62.1,41.0,46,29.97,-9999.0,SE,29.9,44.9,N/A,,Unknown,140,2013-05-23 16:48:00
11:48 AM,63.0,41.0,45,29.96,-9999.0,SE,28.8,36.8,N/A,,Unknown,140,2013-05-23 17:48:00
12:48 PM,64.9,41.0,42,29.94,-9999.0,SE,29.9,43.7,N/A,,Unknown,130,2013-05-23 18:48:00
1:48 PM,66.9,41.0,39,29.91,-9999.0,SE,31.1,40.3,N/A,,Unknown,130,2013-05-23 19:48:00
2:48 PM,64.9,39.9,40,29.92,-9999.0,SE,29.9,36.8,N/A,,Unknown,130,2013-05-23 20:48:00
3:48 PM,66.0,41.0,40,29.89,-9999.0,SE,24.2,35.7,N/A,,Unknown,130,2013-05-23 21:48:00
4:48 PM,66.9,42.1,40,29.88,-9999.0,SE,24.2,29.9,N/A,,Unknown,130,2013-05-23 22:48:00
5:48 PM,68.0,43.0,40,29.85,-9999.0,SE,23.0,32.2,N/A,,Unknown,130,2013-05-23 23:48:00
6:48 PM,68.0,44.1,42,29.83,-9999.0,ESE,24.2,32.2,N/A,,Unknown,120,2013-05-24 00:48:00
7:48 PM,66.9,44.1,44,29.82,-9999.0,ESE,20.7,29.9,N/A,,Unknown,120,2013-05-24 01:48:00
8:48 PM,64.9,44.1,47,29.83,-9999.0,ESE,17.3,-,N/A,,Unknown,110,2013-05-24 02:48:00
9:48 PM,63.0,44.1,50,29.83,-9999.0,East,17.3,-,N/A,,Unknown,90,2013-05-24 03:48:00
10:48 PM,62.1,43.0,50,29.80,-9999.0,ESE,21.9,32.2,N/A,,Unknown,110,2013-05-24 04:48:00
11:48 PM,60.1,42.1,51,29.80,-9999.0,ESE,25.3,31.1,N/A,,Unknown,110,2013-05-24 05:48:00